Information Storage

This is the current data collected from the Raspberry Pis. Data is sampled asynchronously. The server scripts process and synchronize the data before storage.


Time PV Temperature (F) Irradiance (W/m2) Die Temperature (F) PV Voltage (V) Forecasted Irradiance (W/m2) Forecasted Power (W)
5/8/17 01:59:57 0 153.009 0.53352
5/8/17 01:59:42 0 153.009 0.53352
5/8/17 00:59:55 0.26 200.016 0.46632
5/7/17 23:59:53 0.66 241.446 1.1225
5/7/17 22:59:51 0.53 175.55 1.0202
5/7/17 21:59:49 0.26 203.115 1.4165
5/7/17 20:59:54 0.26 237.315 1.655
5/7/17 19:59:52 85.53 257.94 8.2777
5/7/17 18:59:50 112.2 242.511 7.7825
5/7/17 17:59:48 110.23 224.806 7.2143
5/7/17 16:59:46 122.05 188.032 6.0342
5/7/17 15:59:58 117.06 171.721 5.5108
5/7/17 15:59:43 117.19 171.721 5.5108
5/7/17 14:59:56 122.58 154.962 4.9729
5/7/17 14:59:41 124.15 154.962 4.9729
5/7/17 13:59:54 122.58 137.995 4.4285
5/7/17 12:59:52 120.21 134.603 4.3196
5/7/17 11:59:50 121.26 163.857 5.2584
5/7/17 10:59:48 122.84
5/7/17 09:59:45 123.1
5/7/17 08:59:58 118.24
5/7/17 08:59:43 118.24
5/7/17 07:59:54 121.79
5/7/17 06:59:52 116.8
5/7/17 05:59:50 94.2
5/7/17 04:59:47 0
5/7/17 03:59:45 0
5/7/17 02:59:58 0
5/7/17 02:59:43 0.39
5/7/17 01:59:56 0.66
5/7/17 01:59:41 0.13
5/7/17 00:59:59 0
5/6/17 23:59:51 0.66
5/6/17 22:59:49 0.39
5/6/17 21:59:47 0.39
5/6/17 20:59:45 0
5/6/17 19:59:58 48.87
5/6/17 19:59:43 48.87
5/6/17 18:59:55 106.94
5/6/17 17:59:53 115.48
5/6/17 16:59:51 117.45
5/6/17 15:59:49 122.84
5/6/17 14:59:47 114.17
5/6/17 13:59:45 115.74
5/6/17 12:59:57 117.45
5/6/17 12:59:42 117.45
5/6/17 11:59:55 119.03
5/6/17 10:59:53 106.81
5/6/17 09:59:51 117.19
5/6/17 08:59:49 120.34
5/6/17 07:59:46 115.48
5/6/17 06:59:59 111.54
5/6/17 06:59:44 111.41
5/6/17 05:59:57 69.5
5/6/17 05:59:42 69.24
5/6/17 04:59:55 0
5/6/17 03:59:53 0.13
5/6/17 02:59:50 0.66
5/6/17 01:59:48 0.66
5/6/17 00:59:46 0.66
5/5/17 23:59:59 0.13
5/5/17 23:59:44 0.79
5/5/17 22:59:56 1.97
5/5/17 22:59:41 1.58
5/5/17 21:59:54 1.45
5/5/17 20:59:52 1.97
5/5/17 19:59:50 41.65
5/5/17 18:59:48 100.5
5/5/17 17:59:46 113.64
5/5/17 16:59:58 113.51
5/5/17 16:59:43 113.51
5/5/17 15:59:56 115.35
5/5/17 15:59:41 115.35
5/5/17 14:59:59 118.9
5/5/17 14:59:44 118.63
5/5/17 13:59:52 116.14
5/5/17 12:59:50 115.74
5/5/17 11:59:48 113.51
5/5/17 10:59:45 112.33
5/5/17 09:59:58 103.26
5/5/17 09:59:43 103.39
5/5/17 08:59:56 98.01
5/5/17 08:59:41 98.8
5/5/17 07:59:54 108.39
5/5/17 06:59:51 101.82
5/5/17 05:59:49 49.27
5/5/17 04:59:47 0
5/5/17 03:59:45 0.26
5/5/17 02:59:43 0
5/5/17 01:59:56 0.13
5/5/17 01:59:41 0.39
5/5/17 00:59:53 0
5/4/17 23:59:51 0
5/4/17 22:59:49 0.13
5/4/17 21:59:47 0.66
5/4/17 20:59:45 0.26
5/4/17 19:59:58 58.2
5/4/17 19:59:43 58.73
5/4/17 18:59:56 112.33
5/4/17 17:59:53 117.32
5/4/17 16:59:51 119.16
5/4/17 15:59:49 122.71
5/4/17 14:59:47 122.44
5/4/17 13:59:50 120.61
5/2/17 17:14:38 119.03
5/2/17 17:14:24 119.03
5/2/17 17:14:08 119.03
5/2/17 17:13:53 119.16
5/2/17 17:13:39 119.16
5/2/17 16:51:23 118.77
5/2/17 16:51:14 118.11
5/2/17 16:51:11 107.2
5/2/17 16:50:37 106.68
5/2/17 16:50:24 118.24
5/2/17 16:50:18 118.11
5/2/17 16:49:58 118.24
5/2/17 16:49:37 118.37
5/2/17 16:49:22 118.37
5/2/17 16:49:07 118.37
5/2/17 16:48:52 118.5
5/2/17 15:34:50 0
5/2/17 15:34:35 0
5/2/17 15:34:20 0
5/2/17 15:34:05 0
4/25/17 05:33:44 36.29 0 31.94 1.31
4/25/17 05:28:09 36.29 24.4141 31.94 1.18
4/21/17 21:19:49 27.09 0 55.01 0.79
4/21/17 21:14:49 30.16 0 55.4 1.45
4/21/17 21:09:49 52.03 0 56.53 1.05
4/21/17 21:04:50 51.39 0 58.72 0.79
4/21/17 20:59:50 48.9 0 59.11 1.45
4/21/17 20:54:51 49.7 0 59.62 1.18
4/21/17 20:49:50 49.03 0 59.06 1.31
4/21/17 20:44:51 49.04 0 59.39 1.45
4/21/17 20:39:51 48.99 0 59.73 1.18
4/21/17 20:34:51 49.56 0 59.17 0.79
4/21/17 20:29:52 50.37 0 59.22 0.53
4/21/17 20:24:52 50.11 0 59.34 1.05
4/21/17 20:19:52 51.08 0 59.62 1.45
4/21/17 20:14:52 54.21 0 59.56 2.23
4/21/17 20:09:53 55.16 0 59.51 4.86
4/21/17 20:04:54 51.92 0 61.08 7.75
4/21/17 19:59:53 49.48 0 61.25 18
4/21/17 19:54:53 50.74 0 60.58 36.65
4/21/17 19:49:54 54.02 0 60.69 54
4/21/17 19:44:54 53.87 0 60.18 68.32
4/21/17 19:39:54 52 0 60.07 76.59
4/21/17 19:34:54 53.58 0 60.18 83.43
4/21/17 19:29:55 53.18 0 60.46 82.77
4/21/17 19:24:55 52.76 0 60.35 88.15
4/21/17 19:19:55 53.13 0 59.96 88.29
4/21/17 19:14:56 52.36 0 61.25 91.31
4/21/17 19:09:56 58.33 24.4141 60.8 95.25
4/21/17 19:04:56 56.69 0 60.52 97.09
4/21/17 18:59:56 52.26 0 61.7 96.43
4/21/17 18:54:57 60.21 0 60.86 98.8
4/21/17 18:49:57 54.8 0 61.98 109.04
4/21/17 18:44:57 56.71 0 61.7 108.39
4/21/17 18:40:02 58.85 0 61.76 112.33
4/21/17 18:34:58 55.87 24.4141 62.21 115.61
4/21/17 18:29:58 56.97 48.8281 61.93 116.01
4/21/17 18:24:58 57.3 24.4141 61.76 115.74
4/21/17 18:19:58 52.8 0 61.42 108.65
4/21/17 18:14:59 54.01 0 62.04 113.25
4/21/17 18:09:59 54.4 0 62.38 113.12
4/21/17 18:04:59 54.51 24.4141 63.61 116.93
4/21/17 17:59:59 65.22 73.2422 63.95 119.29
4/21/17 17:55:00 57.72 73.2422 63.89 120.34
4/21/17 17:50:00 58.3 97.6563 62.43 116.4
4/21/17 17:45:05 65.91 366.211 63.56 120.21
4/21/17 17:40:00 58.76 146.484 63.33 117.45
4/21/17 17:35:02 73.75 244.141 67.94 116.8
4/21/17 17:30:01 64.52 488.281 71.26 119.69
4/21/17 17:25:01 66.08 537.109 68.9 121
4/21/17 17:20:02 88.85 463.867 66.43 120.87
4/21/17 17:15:02 79.51 512.695 67.1 120.47
4/21/17 17:10:07 85.61 512.695 69.91 120.87
4/21/17 17:05:02 79.73 415.039 68.9 119.55
4/21/17 17:00:03 64.79 292.969 65.81 118.9
4/21/17 16:55:03 62.56 585.938 65.47 120.74
4/21/17 16:50:08 96.28 683.594 67.32 121.13
4/21/17 16:45:03 63.9 561.523 67.55 120.21
4/21/17 16:40:14 56.43 805.664 68.45 121
4/21/17 16:35:04 60.81 219.727 67.83 117.06
4/21/17 16:30:04 61.02 488.281 68.17 120.61
4/21/17 16:25:04 56.97 781.25 66.87 124.94
4/21/17 16:20:20 58.59 219.727 62.6 120.74
4/21/17 16:15:05 53.71 122.07 63.5 119.55
4/21/17 16:10:05 57.5 73.2422 61.64 118.5
4/21/17 16:05:05 56.61 73.2422 61.98 117.98
4/21/17 16:00:06 59.46 73.2422 60.52 117.58
4/21/17 15:55:06 53.02 0 60.41 116.66
4/21/17 15:50:06 59.85 73.2422 60.74 117.19
4/21/17 15:45:06 56.31 48.8281 60.35 116.93
4/21/17 15:40:07 51.91 0 60.74 115.22
4/21/17 15:35:07 53.41 0 60.41 115.35
4/21/17 15:30:07 58.36 0 60.58 114.3
4/21/17 15:25:08 65.3 0 60.58 113.9
4/21/17 15:20:08 58.75 0 60.63 114.43
4/21/17 15:15:08 59.46 0 61.47 113.9
4/21/17 15:10:08 54.11 0 60.97 114.96
4/21/17 15:05:09 55.13 48.8281 61.03 115.35
4/21/17 15:00:09 62.85 24.4141 60.58 115.88
4/21/17 14:55:09 63.35 24.4141 60.91 117.19
4/21/17 14:50:09 61.61 73.2422 62.66 117.06
4/21/17 14:45:15 62.25 97.6563 62.49 119.29
4/21/17 14:40:10 56.56 122.07 61.81 119.42
4/21/17 14:35:15 66.41 146.484 62.32 120.08
4/21/17 14:30:10 63.57 122.07 61.36 119.03
4/21/17 14:25:11 61.51 146.484 62.15 119.03
4/21/17 14:20:11 59.18 146.484 64.96 119.16
4/21/17 14:15:11 62.05 170.898 63.67 119.03
4/21/17 14:10:11 76.73 244.141 64.68 120.87
4/21/17 14:05:12 67.5 195.312 62.88 119.55
4/21/17 14:00:12 63.81 244.141 63.61 120.87
4/21/17 13:55:12 61.33 219.727 65.92 120.08
4/21/17 13:50:13 61.25 146.484 61.42 117.85
4/21/17 13:45:13 70.93 244.141 64.74 119.03
4/21/17 13:40:13 68.49 292.969 66.71 119.95
4/21/17 13:35:13 56.29 390.625 65.69 122.44
4/21/17 13:30:14 57.94 195.312 60.74 120.21
4/21/17 13:25:14 65.19 195.312 60.01 120.08
4/21/17 13:20:14 64.94 244.141 61.42 119.69
4/21/17 13:15:14 68.32 292.969 60.69 122.71
4/21/17 13:10:20 66.34 195.312 59.39 121.39
4/21/17 13:05:15 65.2 170.898 60.86 120.21
4/21/17 13:00:15 60.56 146.484 61.76 119.03
4/21/17 12:55:15 60.76 122.07 59.84 117.85
4/21/17 12:50:16 65.52 366.211 61.53 122.97
4/21/17 12:45:21 57.97 219.727 61.03 120.34
4/21/17 12:40:16 52.51 341.797 59.84 122.31
4/21/17 12:35:17 84.53 292.969 62.21 121.79
4/21/17 12:30:17 54.73 219.727 60.01 122.18
4/21/17 12:25:17 61.19 73.2422 59.73 117.71
4/21/17 12:20:17 62.53 48.8281 60.58 118.5
4/21/17 12:15:18 58.94 122.07 61.93 118.63
4/21/17 12:10:18 63.08 219.727 61.87 122.58
4/21/17 12:05:18 51.92 170.898 60.13 121.52
4/21/17 12:00:18 55.24 97.6563 59.62 118.11
4/21/17 11:55:19 70.32 170.898 57.93 120.61
4/21/17 11:50:24 64.58 170.898 59.06 121.92
4/21/17 11:45:19 69.52 146.484 60.35 120.61
4/21/17 11:40:19 67.14 146.484 57.59 121.13
4/21/17 11:35:20 60.52 122.07 60.63 120.47
4/21/17 11:30:20 56.66 146.484 57.93 121.66
4/21/17 11:25:20 56.54 122.07 56.81 120.87
4/21/17 11:20:21 54.05 170.898 55.91 121.66
4/21/17 11:15:21 61.53 97.6563 56.3 120.47
4/21/17 11:10:21 52.45 170.898 56.64 122.18
4/21/17 11:05:21 68.23 48.8281 55.01 119.42
4/21/17 11:00:22 53.06 97.6563 57.09 120.21
4/21/17 10:55:22 53.32 73.2422 55.01 121.39
4/21/17 10:50:22 59.26 48.8281 57.26 117.71
4/21/17 10:45:23 56.72 268.555 54.39 123.89
4/21/17 10:40:23 46.19 48.8281 54.33 119.29
4/21/17 10:35:23 38.24 0 54.84 116.53
4/21/17 10:30:23 -91.26 0 31.94 119.29
4/21/17 07:39:39 13.2 0 52.19 101.42
4/21/17 07:34:39 -16.11 0 52.76 98.14
4/21/17 07:29:40 43.21 0 53.04 90.26
4/21/17 07:24:45 49.22 0 53.09 94.46
4/21/17 07:19:40 47.31 0 53.26 99.72
4/21/17 07:14:40 46.86 0 53.49 100.11
4/21/17 07:09:41 48.7 0 53.21 93.54
4/21/17 07:04:41 46.75 0 53.43 86.84
4/21/17 06:59:41 50.99 0 53.6 82.51
4/21/17 06:54:41 51.26 0 53.49 80.14
4/21/17 06:49:42 47.78 0 53.32 85.13
4/21/17 06:44:42 49.58 0 53.32 81.32
4/21/17 06:39:42 50.5 0 53.99 78.17
4/21/17 06:34:43 48.28 0 53.71 74.62
4/21/17 06:29:43 47.91 0 53.83 73.7
4/21/17 06:24:43 47.91 0 54.56 65.95
4/21/17 06:19:43 50.41 0 53.83 45.06
4/21/17 06:14:44 50.24 0 54.33 36.79
4/21/17 06:09:44 52.84 0 54.28 29.03
4/21/17 06:04:44 49.4 0 54.5 18.39
4/21/17 05:59:45 49.65 0 54.5 11.43
4/21/17 05:54:45 50.64 0 54.89 5.91
4/21/17 05:49:45 49.04 0 54.11 3.81
4/21/17 05:44:45 50.2 0 54.33 2.5
4/21/17 05:39:46 51.69 0 54.39 2.76
4/21/17 05:34:46 50.6 0 54.89 2.5
4/21/17 05:29:46 48.79 0 55.18 1.71
4/21/17 05:24:46 49.61 0 54.56 1.31
4/21/17 05:19:47 51.78 0 54.56 1.58
4/21/17 05:14:47 49.79 0 54.5 0.92
4/21/17 05:09:47 50.84 0 54.16 1.45
4/21/17 05:04:48 50.11 0 54.56 1.71
4/21/17 04:59:48 50.5 0 53.99 1.58
4/21/17 04:54:48 51.29 0 54.16 1.71
4/21/17 04:49:48 53.66 0 54.28 2.5
4/21/17 04:44:49 53.49 0 54.16 1.84
4/21/17 04:39:49 50.03 0 54.28 1.45
4/21/17 04:34:49 51.83 0 53.99 1.58
4/21/17 04:29:49 51.16 0 54.61 1.84
4/21/17 04:24:50 48.98 0 54.61 1.18
4/21/17 04:19:50 53.74 0 54.56 1.71
4/21/17 04:14:50 51.75 0 54.61 1.71
4/21/17 04:09:51 51.74 0 54.56 1.58
4/21/17 04:04:51 51.68 0 54.33 1.58
4/21/17 03:59:51 50.61 0 54.39 1.58
4/21/17 03:54:51 50.69 0 54.33 2.1
4/21/17 03:49:52 52.11 0 53.94 1.05
4/21/17 03:44:52 50.43 0 54.11 1.18
4/21/17 03:39:52 49.85 0 54.33 1.45
4/21/17 03:34:52 55.02 0 54.28 0.92
4/21/17 03:29:53 50.63 0 54.84 2.23
4/21/17 03:24:53 51.29 0 54.72 1.18
4/21/17 03:19:53 50.75 0 54.56 1.05
4/21/17 03:14:54 50.34 0 54.5 1.18
4/21/17 03:03:16 49.75 0 54.5 1.31
4/21/17 02:58:11 50.23 0 54.84 1.71
4/21/17 02:53:21 50.83 0 54.5 1.18
4/21/17 02:48:12 50.74 0 54.5 1.31
4/21/17 02:43:17 52.27 0 54.56 1.18
4/21/17 02:38:12 49.57 0 54.95 0.79
4/21/17 02:33:12 50.5 0 54.72 0.13
4/21/17 02:28:13 51.04 0 55.06 0.53
4/21/17 02:23:13 51.18 0 54.67 0.39
4/21/17 02:18:16 50.25 0 54.72 1.31
4/21/17 02:13:13 50.76 0 54.95 1.18
4/21/17 02:08:14 50.13 0 55.01 1.31
4/21/17 02:03:17 50.89 0 54.72 0.79
4/21/17 01:58:14 49.67 0 54.95 1.18
4/21/17 01:53:15 53.18 0 55.57 1.05
4/21/17 01:48:15 52.22 0 55.63 1.05
4/21/17 01:43:15 51.85 0 55.34 1.31
4/21/17 01:38:20 50.08 0 55.34 0.92
4/21/17 01:33:16 50.75 0 55.63 1.58
4/21/17 01:28:21 54.66 0 55.12 0.79
4/21/17 01:23:16 51.23 0 55.23 1.71
4/21/17 01:18:16 51.51 0 55.34 0.53
4/21/17 01:13:17 49.84 0 55.74 0.39
4/21/17 01:08:17 50.32 0 55.85 1.31
4/21/17 01:03:17 51.6 0 55.68 1.18
4/21/17 00:58:18 51.67 0 55.4 1.05
4/21/17 00:53:18 51.72 0 55.23 1.71
4/21/17 00:48:18 51.11 0 55.34 1.31
4/21/17 00:43:18 50.59 0 55.4 1.58
4/21/17 00:38:19 50.59 0 55.06 1.05
4/21/17 00:33:19 51.11 0 55.34 1.31
4/21/17 00:28:29 50.7 0 55.63 1.05
4/21/17 00:23:24 50.64 0 55.96 0.66
4/21/17 00:18:20 53.2 0 55.46 1.45
4/21/17 00:13:25 52.57 0 55.12 0.39
4/21/17 00:08:21 54 0 55.18 0.26
4/21/17 00:03:20 52.16 0 56.3 0.53
4/20/17 23:58:21 49.98 0 56.41 0.39
4/20/17 23:53:21 52 0 56.58 1.05
4/20/17 23:48:21 54.43 0 57.65 0.79
4/20/17 23:43:22 52.2 0 57.82 1.71
4/20/17 23:38:22 53.21 0 57.76 1.05
4/20/17 23:33:27 54.4 0 57.88 0.66
4/20/17 23:28:22 53.87 0 57.88 0.92
4/20/17 23:23:23 53.9 0 58.16 0.53
4/20/17 23:18:23 54.61 0 58.1 0.26
4/20/17 23:13:23 53.87 0 57.88 0.66
4/20/17 23:08:23 53.26 0 58.27 1.05
4/20/17 23:03:24 55.25 0 57.99 1.18
4/20/17 22:58:24 54.86 0 57.99 0.39
4/20/17 22:53:24 54.25 0 58.21 0.66
4/20/17 22:48:24 54.06 0 58.55 0.26
4/20/17 22:43:25 53.48 0 58.55 0.79
4/20/17 22:38:25 54.19 0 58.49 0.26
4/20/17 22:33:25 53.26 0 58.61 0.39
4/20/17 22:28:26 52.3 0 58.33 0.66
4/20/17 22:23:26 53.34 0 58.21 0
4/20/17 22:18:26 52.48 0 58.44 0.13
4/20/17 22:13:26 55.02 0 58.55 0.79
4/20/17 22:08:27 53.23 0 59 0.92
4/20/17 22:03:27 53.32 0 58.83 0.13
4/20/17 21:58:27 54.21 0 58.38 0.79
4/20/17 21:53:27 54.01 0 58.38 0.13
4/20/17 21:48:28 55.44 0 59 0
4/20/17 21:43:28 53.68 0 59.22 0
4/20/17 21:38:28 53.32 0 59 0.53
4/20/17 21:33:28 54.56 0 59.28 0.66
4/20/17 21:28:29 51.68 0 59.51 0.13
4/20/17 21:23:29 54.36 0 60.07 0.26
4/20/17 21:18:29 55.95 0 59.79 0.26
4/20/17 21:13:30 58.36 0 60.58 0.26
4/20/17 21:08:30 57.29 0 60.63 0.13
4/20/17 21:03:30 56.58 0 61.42 0.53
4/20/17 20:58:30 55.91 0 61.25 0.79
4/20/17 20:53:31 57.99 0 61.87 0.13
4/20/17 20:48:31 57.81 0 61.76 0.13
4/20/17 20:43:31 58.48 0 62.26 0.92
4/20/17 20:38:31 54.99 0 62.26 0
4/20/17 20:33:32 56.83 0 62.54 0
4/20/17 20:25:35 57.29 0 62.66 0.39
4/20/17 20:20:35 52.58 0 62.99 0.26
4/20/17 20:15:36 58.86 0 63.05 1.05
4/20/17 20:10:36 58.35 0 63.05 2.63
4/20/17 20:05:36 59.35 0 63.72 8.67
4/20/17 20:00:36 59.43 0 64.12 20.36
4/20/17 19:55:37 60.97 0 64.62 37.84
4/20/17 19:50:37 60.47 0 64.51 51.37
4/20/17 19:45:37 59.39 0 64.74 61.62
4/20/17 19:40:37 59.45 0 65.64 71.6
4/20/17 19:35:38 59.34 0 65.75 84.08
4/20/17 19:30:38 63.13 0 66.43 92.23
4/20/17 19:25:38 60.04 0 66.76 96.17
4/20/17 19:20:38 61.83 0 66.48 99.45
4/20/17 19:15:39 63.02 0 66.65 102.21
4/20/17 19:10:39 63.91 0 66.87 104.71
4/20/17 19:05:39 63.89 0 67.94 106.68
4/20/17 19:00:39 63.74 0 68.17 107.47
4/20/17 18:55:40 66.61 0 68.73 108.91
4/20/17 18:50:40 70.7 0 69.74 108.52
4/20/17 18:45:40 68.45 0 70.19 106.68
4/20/17 18:40:40 69.69 0 70.25 106.02
4/20/17 18:35:41 69.05 0 70.7 104.84
4/20/17 18:30:41 71.71 0 71.82 106.94
4/20/17 18:25:41 73.53 0 72.16 105.89
4/20/17 18:20:41 73.4 0 74.07 104.58
4/20/17 18:15:42 75.22 0 75.31 102.21
4/20/17 18:10:42 79.27 0 75.76 102.61
4/20/17 18:05:42 77.51 0 75.82 106.94
4/20/17 18:00:42 75.37 24.4141 75.65 111.67
4/20/17 17:55:42 75.95 48.8281 76.83 113.64
4/20/17 17:50:43 77.72 195.312 76.77 115.22
4/20/17 17:45:43 73.8 268.555 76.21 116.66
4/20/17 17:40:43 80.43 317.383 80.88 116.8
4/20/17 17:35:43 78.16 195.312 78.07 116.14
4/20/17 17:30:44 79.16 97.6563 78.69 113.38
4/20/17 17:25:44 73.05 219.727 78.8 117.06
4/20/17 17:20:44 77.66 244.141 80.77 117.58
4/20/17 17:15:44 83.07 146.484 78.29 115.22
4/20/17 17:10:45 90.15 73.2422 78.07 112.85
4/20/17 17:05:45 85.72 122.07 78.01 111.8
4/20/17 17:00:45 82.69 292.969 81.89 114.43
4/20/17 16:55:45 84.96 463.867 79.87 117.58
4/20/17 16:50:45 88.26 390.625 82.18 116.53
4/20/17 16:45:46 90.08 415.039 82.74 117.45
4/20/17 16:40:46 88.51 146.484 81.33 113.12
4/20/17 16:35:46 76.08 122.07 79.19 111.93
4/20/17 16:30:46 88.18 439.453 85.21 114.82
4/20/17 16:25:47 84.16 439.453 80.88 114.43
4/20/17 16:20:47 91.6 415.039 85.44 112.99
4/20/17 16:15:47 109.3 683.594 87.57 114.82
4/20/17 16:10:47 88.62 683.594 88.02 114.43
4/20/17 16:05:48 80.21 708.008 86.68 114.96
4/20/17 16:00:48 100.27 756.836 89.09 115.88
4/20/17 15:55:48 106.67 610.352 85.32 115.61
4/20/17 15:50:48 99.59 781.25 87.46 114.96
4/20/17 15:45:48 89.42 732.422 87.91 114.69
4/20/17 15:40:49 85.05 781.25 87.74 114.69
4/20/17 15:35:49 110.91 805.664 83.97 114.96
4/20/17 15:30:49 97.87 781.25 87.74 115.22
4/20/17 15:25:49 94.83 830.078 87.01 115.09
4/20/17 15:20:50 124.34 805.664 85.94 114.3
4/20/17 15:15:50 98.3 878.906 90.16 113.9
4/20/17 15:10:50 101.42 878.906 90.89 114.96
4/20/17 15:03:01 94.44 878.906 87.57 118.11
4/20/17 14:58:02 81.1 195.312 80.49 111.93
4/20/17 14:53:02 110.19 268.555 87.01 110.49
4/20/17 14:48:02 78.41 585.938 80.6 115.09
4/20/17 14:43:02 89.44 268.555 82.34 110.36
4/20/17 14:38:02 114.59 927.734 88.36 113.77
4/20/17 14:33:03 97.05 927.734 91.91 113.64
4/20/17 14:28:03 107.84 952.148 93.93 113.51
4/20/17 14:23:03 96.1 976.562 88.87 113.25
4/20/17 14:18:03 118.66 1000.98 88.08 113.38
4/20/17 14:13:04 94.07 952.148 88.19 113.9
4/20/17 14:08:04 96.9 903.32 89.54 113.9
4/20/17 14:03:05 99.17 1049.8 88.53 114.04
4/20/17 13:58:04 93.01 1000.98 86.62 113.25
4/20/17 13:53:04 102.78 1025.39 89.99 113.51
4/20/17 13:48:05 89.5 976.562 94.16 113.51
4/20/17 13:43:05 108.05 1000.98 89.15 115.22
4/20/17 13:38:05 91.07 952.148 87.12 116.14
4/20/17 13:33:05 99.66 415.039 78.46 113.64
4/20/17 13:28:05 107.88 317.383 86.84 110.49
4/20/17 13:23:06 104.54 1025.39 86.51 118.63
4/20/17 13:18:06 78.49 292.969 78.41 113.12
4/20/17 13:13:06 129.45 976.562 83.81 117.06
4/20/17 13:08:11 94.11 976.562 84.2 119.95
4/20/17 13:03:07 89.53 219.727 78.18 113.25
4/20/17 12:58:07 89.47 268.555 79.93 110.75
4/20/17 12:53:07 102.56 927.734 82.4 115.48
4/20/17 12:48:07 107.91 927.734 85.16 114.96
4/20/17 12:43:08 98.97 903.32 85.21 116.4
4/20/17 12:38:08 95.53 683.594 81.95 116.93
4/20/17 12:33:08 88.71 244.141 75.31 112.2
4/20/17 12:28:08 83.53 976.562 81.39 113.77
4/20/17 12:23:08 89.62 805.664 80.37 114.82
4/20/17 12:18:10 98.38 854.492 79.81 115.35
4/20/17 12:13:09 85.5 634.766 79.36 117.85
4/20/17 12:08:09 94.03 512.695 77.28 113.64
4/20/17 12:03:09 73.96 854.492 78.29 116.14
4/20/17 11:58:10 81.6 195.312 76.77 110.1
4/20/17 11:53:10 104.82 756.836 75.65 113.77
4/20/17 11:48:20 76 561.523 75.65 115.22
4/20/17 11:43:15 77.24 756.836 76.72 114.96
4/20/17 11:38:11 77.5 708.008 78.18 116.14
4/20/17 11:33:11 92.75 732.422 77.68 116.93
4/20/17 11:28:11 101.78 585.938 72.84 116.8
4/20/17 11:23:11 108.08 732.422 74.92 117.32
4/20/17 11:18:12 77.08 634.766 73.12 116.93

Previous 1 2 3 4 5 6 7 8 9 10 11 12 13 14 15 16 17 Next